Location: *
(46.1333°S, 161.2167°W)
Time: 09:44:02
(UTC+00:00)

Cosmos 2298 Rocket - Pass Details

Date: 24 October 2020
Orbit: 776 x 783 km, 74.0° (Epoch: 04 December)

Event Time Altitude Azimuth Distance (km) Brightness Sun altitude
Exits shadow 12:45:23 45° 261° (W) 1,074 4.5 -24.3°
Maximum altitude 12:45:56 47° 242° (WSW) 1,051 4.6 -24.2°
Drops below altitude 10° 12:51:09 10° 168° (SSE) 2,376 7.4 -23.7°
Sets 12:53:40 0° 162° (SSE) 3,312 8.5 -23.4°
